Regional Weather Roundup
Issued by NWS Charleston, SC

Current Version | Previous Version | Graphics & Text | Print | Product List | Glossary On
Versions: 1 2 3 4 5 6 7 8 9 10 11 12 13 14 15 16 17 18 19 20 21 22 23 24 25 26 27 28 29 30 31 32 33 34 35 36 37 38 39 40 41 42 43 44 45 46 47 48 49 50
000
ASUS42 KCHS 291427
RWRCHS

REGIONAL WEATHER ROUNDUP
NATIONAL WEATHER SERVICE CHARLESTON SC
1000 AM EDT WED MAR 29 2017

NOTE: "FAIR" INDICATES FEW OR NO CLOUDS BELOW 12,000 FEET WITH NO
SIGNIFICANT WEATHER AND/OR OBSTRUCTIONS TO VISIBILITY.

NOT ALL STATIONS ARE QUALITY CONTROLLED. USE DATA WITH CAUTION...
ESPECIALLY DEWPOINT OBSERVATIONS.

SCZ027-030-031-034>040-042>050-291500-
...SOUTHEAST SOUTH CAROLINA...

CITY           SKY/WX    TMP DP  RH WIND       PRES   REMARKS
N CHARLESTON   MOSUNNY   71  54  54 NE8       30.02R
WATERFRONT PRK   N/A     67  58  72 N7        30.00R
JOHNS ISLAND   FAIR      72  57  60 N6        30.03R
PINOPOLIS        N/A     64  57  77 NE6       29.94R
MONCKS CORNER  FAIR      70  52  52 N3        30.03R
SUMMERVILLE    FAIR      70  55  60 N7        30.04S
BEAUFORT MCAS  SUNNY     71  59  65 NE9       30.03R
BEAUFORT ARPT  FAIR      70  59  68 NE8       30.04R
HILTON HEAD IS SUNNY     72  59  64 NE8       30.03R
WALTERBORO     SUNNY     70  54  56 E9        30.05R
ALLENDALE      FAIR      72  54  53 N7        30.03S

...SOUTHERN MIDLANDS AND PEE DEE...

CITY           SKY/WX    TMP DP  RH WIND       PRES   REMARKS
GEORGETOWN     FAIR      70  54  56 NE6       30.03R
KINGSTREE      FAIR      70  52  52 NE6       30.04R
ORANGEBURG     SUNNY     69  52  54 NE12      30.04R
BARNWELL       FAIR      72  54  53 NE8       30.06R
AIKEN          FAIR      68  52  56 NE9       30.10R
MANNING        FAIR      70  52  52 NE5       30.04R
COLUMBIA       SUNNY     70  52  52 VRB7      30.05R
SUMTER         SUNNY     69  52  54 N3        30.02R
FLORENCE       SUNNY     67  54  63 NE12      30.03R
MYRTLE BEACH   SUNNY     70  54  56 N12       30.02
N MYRTLE BEACH SUNNY     70  55  59 NE8       30.01R

$$

GAZ063-065-086>088-099>101-113>116-118-119-134>141-150-291500-
...SOUTHEAST GEORGIA...

CITY           SKY/WX    TMP DP  RH WIND       PRES   REMARKS
SAVANNAH ARPT  MOSUNNY   74  56  53 NE10      30.03R
HUNTER AAF     SUNNY     73  62  67 NE7       30.00R
FORT STEWART   SUNNY     74  60  61 N7        30.00R
STATESBORO     SUNNY     73  57  56 NE6       30.05R
SYLVANIA       SUNNY    N/A N/A N/A E8        30.06R
CLAXTON        FAIR     N/A N/A N/A NE8       30.04S

...CSRA...CENTRAL AND FAR SOUTHEAST GEORGIA...

CITY           SKY/WX    TMP DP  RH WIND       PRES   REMARKS
THOMSON        SUNNY     69  51  53 S9        30.12R
AUGUSTA-BUSH   SUNNY     71  55  56 E5        30.05R
AUGUSTA-DANIEL SUNNY     70  49  47 NE9       30.07R
SWAINSBORO     FAIR      73  54  49 E6        30.07R
VIDALIA        SUNNY     73  59  60 NE5       30.05R
EASTMAN        FAIR      75  54  48 CALM      30.07S
HAZLEHURST     FAIR      74  66  77 NW5       30.04R
ALMA           SUNNY     72  65  78 NW6       30.03R
WAYCROSS       SUNNY     79  69  72 N7        30.04R
JESUP          FAIR      75  61  60 NW5       30.04R
BAXLEY         FAIR      73  70  88 N5        30.04R
BRUNSWICK      SUNNY     79  68  69 N6        30.04R
SAINT SIMONS   SUNNY     74  63  68 NW6       30.02R

$$

SCZ027-028-034-036>038-045-046-048>050-GAZ119-141-291500-
...LAKE AND SUPPLEMENTAL COASTAL OBSERVATIONS...

STATION/POSITION TIME  TEMP    WIND        PRES    WAVE   SWELL
                       AIR SEA DIR/SP/G            HT/PER HT/PER/DIR
                 (UTC) (F)     (DEG/KT/KT) (MB)    (FT/S) (FT/S/D)
WINYAH BAY       1345   69      50/ 11     1016.0R
LAKE MURRAY      1330   65      CALM  /  2 1017.3S
ACE BASIN NERRS  1330   68      10/  4     1016.0S
FORT PULASKI     1400   70 65   50/  7/ 11 1017.0
SAPELO ISLAND    1400   74     350/  6     1017.0

$$

ANZ835-935-AMZ111-154-330-350-352-354-370-450-454-472-291500-
...C-MAN AND BUOY OBSERVATIONS...

STATION/POSITION TIME  TEMP    WIND        PRES    WAVE   SWELL
                       AIR SEA DIR/SP/G            HT/PER HT/PER/DIR
                 (UTC) (F)     (DEG/KT/KT) (MB)    (FT/S) (FT/S/D)
BUOY 41004       1350   70 70   40/ 12/ 14 1015.3R   5/11   3/110/11
BUOY 41008       1350   66 65  300/  4/  4 1016.0R   3/11   3/ 90/11
FOLLY BEACH CMAN 1400   66      40/  8/  9 1017.2R
CAPERS NEARSHORE NOT AVBL
FRIPP NEARSHORE  1408   65 63   20/  6/  8 1016.4R


STATION/POSITION TIME  TEMP    WIND        PRES    WAVE   SWELL
                       AIR SEA DIR/SP/G            HT/PER HT/PER/DIR
                 (UTC) (F)     (DEG/KT/KT) (MB)    (FT/S) (FT/S/D)
5E ST. MARYS GA  1400      68                N/A     4/10   2/110/11
FRYING PAN BUOY  1410   68 74   10/ 12/ 14 1015.8
BUOY 41025       1350   56 74   20/ 21/ 27 1016.4R   6/10   3/130/10
CAPE LOOKOUT NC  1400   58      30/ 18/ 20 1016.7R
BUOY 41002       1350   70 72  260/  6/  8 1014.8F   6/10   7/100/10
BUOY 41010       NOT AVBL
ST AUGUSTINE FL  1400   72 67  270/  3/  5 1018.5R


$$




USA.gov is the U.S. government's official web portal to all federal, state and local government web resources and services.